Location: Unspecified
(43.4354°N, 0.0000°E)
Time: 18:00:28
(UTC+00:00)

A-11 Canister half - Pass Details

Date: 20 June 2019
Orbit: 1514 x 1686 km, 47.2° (Epoch: 24 August)

Event Time Altitude Azimuth Distance (km) Brightness Sun altitude
Rises 16:23:22 0° 293° (WNW) 4,792 12.5 33.4°
Reaches altitude 10° 16:26:30 10° 292° (WNW) 3,783 12.3 32.8°
Maximum altitude 16:36:01 77° 208° (SSW) 1,576 9.7 31.1°
Drops below altitude 10° 16:45:15 10° 125° (SE) 3,673 10.6 29.4°
Sets 16:48:15 0° 124° (ESE) 4,647 11.1 28.9°
